Theta_e
318 319 320 320 320 321 322 324 326 329 329 329 329 329 330 331 332 335 334 330 328 331 331 326 328 331 324 322 322 322 322 327 324 326 331 336 342 342 340 341 340 339 337
316 316 317 318 319 319 320 321 321 321 322 323 324 324 325 326 329 329 327 327 327 327 326 326 324 321 331 330 324 329 325 328 326 324 328 329 335 340 341 339 337 337 336
314 314 315 316 316 317 317 318 319 319 318 318 318 318 319 320 322 324 326 326 327 328 327 327 325 326 328 323 326 323 321 321 323 326 323 328 330 333 335 338 338 339 339
313 312 313 314 315 315 315 316 316 315 314 314 315 315 314 315 316 317 319 322 325 326 328 328 325 325 326 327 325 326 325 323 323 324 322 322 327 333 333 331 331 336 333
311 310 311 313 313 313 313 313 313 313 313 313 312 313 313 313 312 316 316 319 321 322 326 325 326 324 319 321 320 324 326 320 317 320 319 321 321 323 329 330 331 334 335
310 309 310 310 310 310 311 311 311 311 311 312 312 312 312 312 306 304 307 312 314 315 319 321 323 320 318 313 313 313 317 320 318 321 321 319 322 323 331 333 331 330 329
308 308 308 308 307 308 308 308 309 310 311 311 311 310 310 311 303 301 302 309 311 313 315 316 317 316 318 319 313 311 311 310 310 320 320 317 321 325 330 330 334 333 331
307 307 307 306 305 306 307 307 308 307 305 305 305 305 305 306 300 298 299 305 306 307 308 310 311 315 316 314 316 318 319 320 321 321 324 324 323 325 326 336 335 335 332
305 305 305 305 304 305 305 303 303 302 299 296 297 299 299 299 297 297 297 299 299 301 304 304 304 308 308 302 312 313 314 315 311 307 309 308 304 303 310 331 327 322 323
303 303 304 304 302 300 300 299 295 295 294 295 296 296 297 297 296 295 296 298 296 297 299 305 302 303 301 299 310 310 309 313 314 316 320 316 309 315 306 320 329 321 318
304 303 301 300 298 298 293 293 294 294 293 294 294 296 297 296 296 294 294 296 296 297 298 302 304 300 298 297 298 311 309 310 311 315 322 326 323 323 321 320 325 323 317
299 297 296 296 292 292 292 292 292 292 292 291 291 291 293 295 295 295 294 294 296 296 297 302 304 298 296 296 299 300 298 301 311 320 322 321 321 318 318 319 321 323 329
295 294 291 291 290 291 290 289 289 291 290 290 290 290 291 295 296 296 294 293 294 296 300 300 298 296 295 296 294 296 296 307 313 314 317 321 324 321 316 319 325 329 329
290 289 289 288 288 289 289 289 289 289 289 289 289 290 291 292 295 298 298 297 298 300 299 302 302 300 297 300 306 304 303 308 312 315 319 321 318 315 316 320 320 324 326
287 287 288 288 287 287 288 288 289 291 290 289 290 291 290 290 293 294 293 293 294 294 294 303 304 306 307 308 312 308 309 313 314 318 316 318 316 317 319 324 326 327 324
285 286 285 286 286 286 287 288 290 290 290 289 289 289 291 291 291 291 291 290 290 290 297 302 303 307 306 309 306 308 310 309 313 315 316 318 316 319 320 324 322 324 323
284 284 284 285 286 286 286 286 286 290 291 291 290 289 289 289 290 290 290 290 289 290 297 303 303 308 310 311 311 309 311 317 315 315 316 316 319 322 319 323 323 323 322
284 285 285 285 286 286 286 287 287 287 288 291 292 290 290 289 289 289 289 289 292 294 297 300 304 310 311 312 311 310 313 313 315 314 316 318 319 320 320 321 322 322 322
283 283 285 286 287 287 288 288 290 291 292 292 293 292 290 290 289 289 289 292 293 294 302 304 308 306 313 311 313 311 312 313 315 319 321 317 325 323 322 322 322 306 311
283 284 285 287 287 288 291 292 293 294 294 293 292 291 292 291 291 291 291 293 293 297 302 306 308 312 312 312 313 314 315 315 317 317 321 323 326 322 321 322 322 322 322
284 285 285 288 289 290 291 291 292 294 294 293 292 292 287 291 293 293 293 294 296 299 302 308 308 311 312 315 316 316 317 317 317 318 322 323 324 322 323 324 324 323 323
285 286 287 287 289 290 290 291 291 292 294 293 293 293 287 293 295 295 295 297 298 300 303 306 309 311 313 314 318 317 321 321 322 322 323 323 324 323 324 323 323 323 323
285 285 286 287 288 287 288 289 289 290 290 294 294 294 294 294 295 296 298 299 300 300 302 304 308 311 313 312 316 316 318 322 323 323 324 324 323 322 322 321 322 322 322
285 284 284 285 286 286 287 286 287 287 289 290 294 293 294 296 296 296 298 301 300 302 302 305 310 310 315 317 312 316 320 325 325 326 326 324 322 318 322 322 322 322 322
283 283 282 283 283 284 284 285 286 287 287 289 290 295 296 297 296 296 299 301 302 303 304 308 310 312 313 311 310 316 300 296 314 302 326 325 324 324 322 322 322 322 322
283 283 282 282 282 283 283 283 284 285 285 286 288 290 296 298 297 299 298 302 303 304 304 307 308 307 310 308 308 294 290 290 304 293 322 325 324 324 323 322 323 322 321
Wind_Speed
6 6 6 6 6 5 6 7 7 8 10 12 13 14 15 15 16 14 15 16 16 14 14 14 14 13 11 11 11 11 12 10 11 13 13 15 17 14 13 12 12 12 10
7 7 8 8 8 8 8 9 9 10 11 12 13 14 16 17 17 19 19 18 19 19 18 18 18 14 14 12 12 12 12 12 11 17 14 13 15 14 14 13 11 12 11
9 9 9 9 10 11 11 12 13 14 14 15 16 17 17 18 18 19 20 21 21 21 20 19 18 17 15 13 12 13 13 12 12 10 13 12 14 13 12 12 11 12 11
10 11 12 12 12 13 13 14 15 15 16 17 18 19 20 20 21 21 21 20 20 21 20 20 20 19 18 16 14 14 13 12 13 11 11 11 14 13 9 11 10 9 8
12 13 13 14 14 15 15 16 16 16 17 18 19 19 20 19 17 20 20 20 20 20 20 21 21 21 22 17 14 15 14 12 13 12 8 10 11 9 14 12 10 8 6
14 15 15 15 16 16 17 17 17 18 18 18 19 19 20 16 18 10 12 19 21 21 19 20 21 21 19 17 15 12 13 13 14 10 12 11 13 10 13 11 11 9 6
16 16 17 17 17 18 17 18 18 18 17 18 19 19 20 19 16 13 16 20 21 20 20 19 19 18 18 22 19 18 17 16 16 14 14 11 12 12 15 12 10 9 6
17 17 17 17 18 18 19 19 18 15 16 18 18 20 19 16 17 14 12 14 15 16 17 19 19 18 16 13 16 20 20 16 17 12 14 15 12 12 12 13 10 6 4
18 18 18 18 19 19 18 18 17 16 15 16 16 15 14 15 20 20 14 15 17 17 16 18 19 19 17 11 13 15 16 16 13 11 14 15 11 11 11 9 7 6 4
18 18 18 18 18 18 19 18 17 14 14 13 14 16 21 18 18 16 13 11 13 12 15 19 21 19 14 13 14 16 20 19 19 19 14 14 13 10 11 10 5 5 6
18 18 19 18 18 17 17 14 14 14 16 16 18 18 19 18 18 21 23 14 11 10 11 11 10 17 20 14 14 15 17 16 18 17 13 11 8 7 5 7 8 8 5
18 19 19 16 13 13 15 15 15 15 15 15 14 14 12 16 20 19 13 13 15 13 13 8 9 11 14 14 13 14 14 14 15 11 10 10 8 6 5 7 8 8 5
18 18 15 16 14 13 14 14 12 12 11 12 11 11 11 11 11 13 15 17 20 16 12 13 11 6 7 8 13 13 14 11 14 11 9 10 9 5 7 8 4 2 5
16 16 14 15 15 13 11 10 11 11 10 11 11 11 10 10 10 9 4 7 13 9 11 12 12 12 12 9 7 7 6 10 11 12 10 7 6 5 6 11 11 13 10
14 14 14 12 13 13 11 11 11 13 11 11 11 10 10 10 9 2 3 6 7 7 8 8 10 11 13 11 10 7 8 9 9 9 8 8 7 11 16 15 12 9 7
14 11 11 11 11 10 11 13 16 21 24 24 27 20 13 18 16 13 16 11 9 9 7 8 8 11 10 7 6 8 8 10 9 10 11 10 10 13 16 11 11 10 10
13 13 11 13 11 11 10 10 12 16 16 19 22 24 24 22 17 13 13 7 9 8 8 10 9 12 10 7 8 7 9 10 10 12 13 13 13 14 12 10 12 11 9
14 21 12 11 10 10 10 11 10 11 12 12 9 13 15 17 16 15 14 6 8 8 9 10 12 9 5 7 6 9 7 5 7 13 15 15 13 12 14 13 10 10 9
12 10 11 10 10 13 11 11 11 11 10 10 8 4 8 13 11 11 10 7 7 7 10 11 8 3 5 6 7 9 7 7 10 11 9 7 12 11 11 10 9 8 8
10 18 15 10 10 10 9 10 10 10 6 7 6 4 3 3 3 4 5 7 7 9 7 10 6 4 3 6 6 6 7 5 6 8 7 8 8 11 10 9 9 9 10
9 10 12 10 8 9 9 9 9 10 5 6 5 4 4 4 4 5 6 7 7 7 7 6 4 1 2 7 5 4 2 6 8 12 12 10 10 8 8 9 8 9 9
9 9 9 9 9 9 10 9 9 9 9 5 6 3 2 3 3 4 5 6 6 5 6 7 3 3 3 3 6 3 7 13 12 11 11 10 9 9 8 8 8 8 9
9 10 10 9 9 11 9 9 9 9 9 7 4 4 2 3 3 3 5 8 5 4 5 6 4 6 6 2 3 2 6 5 8 8 10 9 9 8 8 7 7 8 8
9 10 10 10 9 9 9 9 9 10 9 9 6 2 3 2 4 3 4 6 7 5 3 6 3 6 6 6 1 3 4 7 7 9 10 9 8 7 7 7 8 9 8
9 10 9 9 10 9 10 10 10 10 9 9 9 6 3 1 0 3 3 5 8 6 7 7 3 2 7 4 2 8 7 3 9 6 8 9 8 9 8 8 8 7 10
10 11 9 9 9 9 9 9 10 10 10 9 9 8 5 1 1 0 2 4 6 8 8 6 5 7 9 2 4 6 6 5 7 7 4 7 8 8 8 7 9 8 11
Wind_Direction
16 8 354 344 333 318 309 301 295 285 273 268 263 257 252 250 249 248 251 259 260 235 244 249 248 250 258 267 272 277 276 257 267 276 270 270 281 285 287 282 276 265 265
346 334 328 321 318 304 297 294 289 279 275 269 267 263 261 257 254 252 251 252 250 246 244 243 247 244 239 243 257 262 273 288 281 273 276 282 273 272 276 266 268 268 258
325 317 311 306 299 294 289 284 279 275 270 268 265 262 260 259 258 253 251 249 249 248 251 248 245 246 249 250 259 270 275 273 265 266 275 277 278 273 260 247 251 256 258
314 306 301 295 292 289 286 281 278 276 274 271 268 268 266 264 261 258 256 256 254 251 249 247 246 246 245 245 246 255 265 266 269 262 264 267 271 276 267 262 254 233 246
307 302 297 293 289 286 284 283 282 280 277 278 277 273 272 270 265 262 261 259 258 259 256 248 244 244 249 252 251 247 258 264 270 268 254 261 264 262 250 245 248 248 213
302 296 296 293 290 287 286 284 281 278 277 277 275 274 274 271 275 279 283 275 270 266 261 253 251 245 235 231 234 244 263 262 264 271 264 252 253 248 261 259 243 214 194
297 295 295 296 293 290 290 288 284 283 283 281 282 283 281 282 287 284 279 277 269 266 267 265 264 256 235 242 223 225 229 232 236 260 264 255 253 251 255 262 246 235 211
298 298 298 297 296 295 292 289 291 294 287 284 281 278 278 271 276 271 257 273 268 268 274 273 272 271 258 257 245 241 230 230 228 230 249 252 251 271 287 261 257 216 180
301 301 302 304 300 297 296 300 296 289 298 289 277 276 282 279 285 275 290 289 274 269 267 260 257 260 241 217 240 264 266 268 271 225 227 254 260 245 244 262 191 195 192
305 306 305 302 300 298 292 300 292 277 280 276 272 273 267 269 268 255 258 263 272 270 266 265 246 248 270 197 216 239 254 253 256 260 233 242 241 233 223 255 241 209 166
305 307 305 303 297 303 292 284 280 278 277 275 276 276 278 276 271 261 249 250 250 261 260 256 247 230 228 205 207 243 250 262 255 249 247 239 221 202 220 220 242 199 187
312 303 300 304 300 287 283 282 278 276 273 273 272 272 268 272 264 262 243 242 253 255 256 261 271 217 205 210 217 231 238 253 254 247 234 224 209 183 189 199 238 240 204
304 303 305 295 289 282 280 279 280 273 269 271 267 269 273 273 279 256 240 251 258 250 237 251 264 274 217 218 219 229 222 238 232 238 228 219 198 167 158 225 184 269 90
310 298 297 291 292 287 279 274 272 271 269 266 266 267 270 273 276 283 272 315 257 232 227 239 248 257 282 294 252 223 218 218 213 222 222 200 143 127 221 207 178 194 162
301 298 296 291 290 289 281 276 270 267 258 267 267 268 269 266 264 304 343 331 332 343 314 232 230 233 234 233 228 232 211 219 220 221 199 185 178 181 208 195 184 177 174
300 299 295 295 291 288 289 293 270 260 266 258 257 254 263 260 268 270 286 300 300 331 309 247 238 250 224 221 220 226 203 203 201 181 182 179 173 200 196 177 174 173 174
297 297 295 293 289 291 289 286 295 304 279 265 255 252 253 257 256 248 246 259 290 297 279 250 247 251 226 201 212 199 195 202 189 188 177 166 197 190 168 174 179 174 160
295 294 291 288 288 288 285 284 279 279 288 294 263 242 251 256 250 238 237 245 265 248 248 245 240 231 248 216 192 201 172 196 172 160 161 187 189 165 184 178 165 169 171
301 293 292 292 288 285 284 282 277 275 275 286 288 254 252 252 247 221 197 222 234 260 239 239 244 262 244 180 175 158 164 183 166 166 183 210 143 169 179 173 167 170 152
296 294 295 293 294 293 295 301 303 302 314 315 314 300 291 256 187 178 193 206 227 254 288 238 229 236 189 166 161 171 157 184 187 180 175 152 174 176 175 177 178 163 179
304 304 304 297 306 308 310 312 309 313 306 317 307 302 291 282 222 183 181 201 223 245 280 220 183 193 202 181 177 167 192 155 182 197 178 176 174 178 180 185 165 176 177
313 314 316 318 317 321 321 315 323 323 324 323 328 339 259 253 246 184 185 199 219 251 293 316 161 153 269 194 205 195 247 175 218 154 162 161 173 170 175 176 168 171 153
326 331 329 327 331 327 328 331 332 334 332 323 331 329 285 240 246 218 195 201 193 226 274 299 298 139 139 32 104 215 269 199 204 158 157 162 175 167 175 181 169 170 168
339 338 338 337 339 335 335 334 334 336 338 336 328 310 311 289 232 216 263 198 170 191 249 276 296 120 128 155 118 241 244 240 224 156 160 170 181 159 178 179 180 169 160
346 346 344 340 339 340 336 340 340 341 341 342 338 326 319 160 307 254 217 210 177 183 196 216 195 197 129 131 339 233 52 357 316 321 182 180 184 178 182 185 171 161 147
354 358 350 344 342 344 342 342 341 343 342 342 341 340 321 267 246 260 210 225 213 188 186 205 188 246 133 143 308 20 359 313 277 276 230 186 176 191 184 198 173 154 156